Regional Weather Roundup
Issued by NWS

Home | Current Version | Previous Version | Text Only | Print | Product List | Glossary On
Versions: 1 2 3 4 5 6 7 8 9 10 11 12 13 14 15 16 17 18 19 20 21 22 23 24 25 26 27 28 29 30 31 32 33 34 35 36 37 38 39 40 41 42 43 44 45 46 47 48 49 50
000
ASUS45 KCYS 231710
RWRWY

WYOMING REGIONAL WEATHER ROUNDUP
NATIONAL WEATHER SERVICE CHEYENNE WY
1100 AM MDT SAT AUG 23 2014

NOTE:  "FAIR" INDICATES FEW OR NO CLOUDS BELOW 12,000 FEET
WITH NO SIGNIFICANT WEATHER AND/OR OBSTRUCTIONS TO VISIBILITY.

WYZ001-231800-
YELLOWSTONE NATIONAL PARK

CITY           SKY/WX    TMP DP  RH WIND       PRES   REMARKS
LK YELLOWSTONE   N/A     49  41  74 VRB3      30.10S
W YELLOWSTONE  NOT AVBL

$$
WYZ002>013-054>058-071-098>099-231800-
NORTHERN WYOMING

CITY           SKY/WX    TMP DP  RH WIND       PRES   REMARKS
JACKSON          N/A     54  45  71 S9        30.07S
CODY           CLOUDY    57  54  88 CALM      29.94F
GREYBULL       CLOUDY    59  55  87 NW10      29.91R
WORLAND        HVY RAIN  56  55  97 NW6       29.92S FOG
SHERIDAN       CLOUDY    62  58  86 NW5       29.84F
BUFFALO        CLOUDY    62  57  83 NW7       29.87F
GILLETTE       MOSUNNY   69  59  70 SE13      29.83F
HULETT         CLOUDY    64  61  88 MISG      29.88
NEWCASTLE      CLOUDY    68  55  64 S12G17    29.88

$$
WYZ014>020-022>026-101>103-231800-
CENTRAL WYOMING

CITY           SKY/WX    TMP DP  RH WIND       PRES   REMARKS
BIG PINEY      CLOUDY    50  44  80 CALM      30.09S
PINEDALE       CLOUDY    50  43  76 SW3       30.09S
DUBOIS         PTSUNNY   52  39  62 N10       30.03F
LANDER         MOSUNNY   61  50  67 N7        29.94F
RIVERTON       MOSUNNY   59  51  75 SE5       29.96F
CASPER         PTSUNNY   61  47  59 SW16G23   29.96S
DOUGLAS        CLOUDY    69  48  47 W15G21    29.93F

$$
WYZ021-027>030-104>119-231800-
SOUTHERN WYOMING

CITY           SKY/WX    TMP DP  RH WIND       PRES   REMARKS
EVANSTON       MOSUNNY   53  42  66 SW17G23   30.13S
KEMMERER       PTSUNNY   52  43  71 W13G20    30.13R
FORT BRIDGER   FAIR      53  46  77 SW13      30.16R
ROCK SPRINGS   CLOUDY    48  41  76 SW15      30.10R
DIXON          RAIN      51  48  90 SW8       30.15R
RAWLINS        PTSUNNY   54  45  71 SW25G32   30.07F
SARATOGA       CLOUDY    55  45  67 MISG      30.09S
LARAMIE        PTSUNNY   64  42  44 SW12      30.05R
CHEYENNE       MOSUNNY   70  46  42 CALM      29.98S
TORRINGTON     SUNNY     71  56  58 VRB5      29.87F
PINE BLUFFS    FAIR      72  52  49 W6        29.94F

$$



USA.gov is the U.S. government's official web portal to all federal, state and local government web resources and services.